Location: *
(51.2167°N, 10.0667°E)
Time: 11:24:14
(UTC+00:00)

ATLAS 5 CENTAUR R/B - Pass Details

Date: 12 December 2019
Orbit: 283 x 14339 km, 60.7° (Epoch: 25 January)

Event Time Altitude Azimuth Distance (km) Brightness Sun altitude
Rises 16:57:51 0° 217° (SW) 2,266 5.9 -15.5°
Reaches altitude 10° 16:59:55 10° 210° (SSW) 1,177 4.2 -15.8°
Enters shadow 17:01:48 43° 148° (SSE) 418 1.1 -16.1°
